contact:dominique.lefevre@mio.osupytheas.fr, maurice.libes@osupytheas.fr, didier.mallarino@osupytheas.fr
Project:EMSO http://www.emso-fr.org/EMSO-France
Depth: 2436.0 m
Title:EMSO Ligure Ouest : Data MII capteur AQUADOPP
Date,Latitude,Longitude,X_East,Y_North,Z_Up,Amplitude_X,Amplitude_Y,Amplitude_Z,Batterie,SoundSpeed,Heading,Pitch,Roll,Pressure,TIS,Speed,Direction
, degrees North, degrees East, m.s-1, m.s-1,m.s-1, 1, 1, 1, Volt, m.s-1, degree, degree, degree, dbar, degree_C, m.s-1, degree
2023-12-14T00:04:03,42.805,6.029,-0.025,0.015,-0.043,108.0,108.0,105.0,13.4,1505.2,352.8,-0.8,1.8,2471.531,13.29,0.029,301.0
2023-12-14T00:07:03,42.805,6.029,-0.018,0.024,-0.024,107.0,107.0,105.0,13.3,1505.2,347.8,-0.8,1.8,2471.506,13.29,0.03,323.1
2023-12-14T00:10:03,42.805,6.029,-0.012,0.005,-0.012,108.0,106.0,105.0,13.3,1505.2,353.0,-0.8,1.8,2471.506,13.29,0.013,292.6
2023-12-14T00:13:03,42.805,6.029,-0.012,0.004,-0.011,107.0,107.0,105.0,13.3,1505.2,350.9,-0.7,1.8,2471.532,13.29,0.012,288.4
2023-12-14T00:16:03,42.805,6.029,-0.013,0.006,-0.033,107.0,107.0,105.0,13.4,1505.2,0.8,-0.8,1.8,2471.464,13.29,0.014,294.8
2023-12-14T00:19:03,42.805,6.029,0.001,-0.005,-0.023,108.0,108.0,105.0,13.3,1505.2,352.1,-0.8,1.8,2471.466,13.29,0.005,168.7
2023-12-14T00:22:03,42.805,6.029,-0.009,0.017,-0.011,108.0,107.0,104.0,13.4,1505.2,355.7,-0.8,1.8,2471.465,13.29,0.019,332.1
2023-12-14T00:25:02,42.805,6.029,-0.013,0.003,-0.029,108.0,107.0,104.0,13.4,1505.2,349.4,-0.7,1.8,2471.46,13.29,0.013,283.0
2023-12-14T00:28:03,42.805,6.029,-0.021,0.011,-0.043,108.0,108.0,105.0,13.4,1505.2,0.0,-0.8,1.8,2471.501,13.29,0.023,297.6
2023-12-14T00:31:03,42.805,6.029,-0.024,-0.004,-0.032,108.0,107.0,106.0,13.4,1505.2,0.8,-0.8,1.8,2471.469,13.29,0.024,260.5
2023-12-14T00:34:03,42.805,6.029,-0.054,0.014,-0.015,108.0,108.0,105.0,13.4,1505.2,340.6,-0.8,1.8,2471.448,13.29,0.055,284.5
2023-12-14T00:37:03,42.805,6.029,-0.012,0.003,-0.014,108.0,107.0,104.0,13.3,1505.2,356.5,-0.8,1.8,2471.459,13.29,0.012,284.0
2023-12-14T00:40:03,42.805,6.029,-0.004,-0.005,-0.013,107.0,107.0,105.0,13.4,1505.2,350.9,-0.7,1.8,2471.485,13.29,0.006,218.7
2023-12-14T00:43:03,42.805,6.029,-0.014,-0.001,-0.034,108.0,107.0,105.0,13.4,1505.2,1.7,-0.7,1.8,2471.443,13.29,0.014,265.9
2023-12-14T00:46:03,42.805,6.029,-0.034,0.005,-0.047,106.0,106.0,105.0,13.4,1505.2,350.4,-0.8,1.8,2471.457,13.29,0.034,278.4
2023-12-14T00:49:03,42.805,6.029,-0.005,0.0,-0.035,107.0,107.0,104.0,13.4,1505.2,357.5,-0.8,1.8,2471.469,13.29,0.005,270.0
2023-12-14T00:52:03,42.805,6.029,-0.006,0.018,-0.001,109.0,109.0,104.0,13.4,1505.2,1.7,-0.7,1.8,2471.406,13.29,0.018,341.6
2023-12-14T00:55:03,42.805,6.029,-0.032,-0.006,-0.004,109.0,108.0,103.0,13.4,1505.2,346.3,-0.7,1.8,2471.479,13.29,0.032,259.4
2023-12-14T00:58:03,42.805,6.029,-0.008,0.019,0.001,109.0,108.0,104.0,13.3,1505.2,356.6,-0.8,1.8,2471.445,13.29,0.02,337.2
2023-12-14T01:04:03,42.805,6.029,-0.018,0.012,-0.005,108.0,109.0,107.0,13.4,1505.2,342.8,-0.8,1.8,2471.48,13.29,0.021,303.7
2023-12-14T01:07:03,42.805,6.029,-0.016,0.018,0.006,107.0,107.0,105.0,13.3,1505.2,347.6,-0.8,1.8,2471.477,13.29,0.024,318.4
2023-12-14T01:10:03,42.805,6.029,-0.003,0.002,-0.012,109.0,107.0,105.0,13.4,1505.2,356.5,-0.8,1.8,2471.488,13.29,0.003,303.7
2023-12-14T01:13:03,42.805,6.029,-0.017,0.0,-0.05,108.0,107.0,106.0,13.4,1505.2,342.9,-0.8,1.8,2471.473,13.29,0.017,270.0
2023-12-14T01:16:03,42.805,6.029,-0.014,0.012,-0.044,108.0,108.0,104.0,13.4,1505.2,348.0,-0.7,1.8,2471.462,13.29,0.018,310.6
2023-12-14T01:19:03,42.805,6.029,-0.035,-0.009,0.009,109.0,107.0,105.0,13.4,1505.2,348.8,-0.8,1.9,2471.456,13.29,0.036,255.6
2023-12-14T01:22:02,42.805,6.029,-0.016,0.0,0.001,109.0,108.0,106.0,13.3,1505.2,344.8,-0.8,1.8,2471.476,13.29,0.016,270.0
2023-12-14T01:25:03,42.805,6.029,-0.01,0.016,-0.012,109.0,107.0,105.0,13.3,1505.2,0.8,-0.8,1.8,2471.481,13.29,0.018,328.0
2023-12-14T01:28:03,42.805,6.029,-0.034,0.0,-0.027,108.0,108.0,104.0,13.4,1505.2,346.8,-0.8,1.8,2471.442,13.29,0.034,270.0
2023-12-14T01:31:03,42.805,6.029,-0.013,0.009,-0.03,109.0,108.0,105.0,13.4,1505.2,357.5,-0.8,1.8,2471.434,13.29,0.015,304.7
2023-12-14T01:34:03,42.805,6.029,-0.024,-0.011,-0.033,108.0,108.0,106.0,13.4,1505.2,355.5,-0.7,1.9,2471.441,13.29,0.026,245.4
2023-12-14T01:37:03,42.805,6.029,-0.01,0.006,0.003,109.0,107.0,105.0,13.3,1505.2,350.1,-0.8,1.8,2471.459,13.29,0.011,301.0
2023-12-14T01:40:03,42.805,6.029,-0.02,-0.018,-0.014,109.0,107.0,107.0,13.4,1505.2,349.4,-0.7,1.8,2471.438,13.29,0.026,228.0
2023-12-14T01:43:03,42.805,6.029,-0.02,-0.005,-0.025,109.0,110.0,106.0,13.4,1505.2,352.1,-0.8,1.8,2471.459,13.29,0.02,256.0
2023-12-14T01:46:03,42.805,6.029,-0.022,-0.011,-0.043,108.0,109.0,106.0,13.3,1505.2,349.6,-0.8,1.8,2471.436,13.29,0.024,243.4
2023-12-14T01:49:03,42.805,6.029,-0.019,-0.014,-0.008,109.0,108.0,105.0,13.4,1505.2,340.7,-0.8,1.8,2471.438,13.29,0.023,233.6
2023-12-14T01:52:03,42.805,6.029,-0.009,0.009,-0.015,108.0,107.0,106.0,13.3,1505.2,349.4,-0.8,1.8,2471.455,13.29,0.012,315.0
2023-12-14T01:55:03,42.805,6.029,-0.023,0.001,-0.023,110.0,107.0,106.0,13.3,1505.2,351.7,-0.8,1.8,2471.438,13.29,0.023,272.5
2023-12-14T01:58:03,42.805,6.029,-0.022,0.0,0.009,108.0,107.0,107.0,13.3,1505.2,1.7,-0.8,1.8,2471.435,13.29,0.022,270.0
2023-12-14T02:04:03,42.805,6.029,-0.016,-0.007,-0.054,109.0,111.0,105.0,13.4,1505.2,347.6,-0.8,1.8,2471.48,13.29,0.017,246.4
2023-12-14T02:07:03,42.805,6.029,-0.019,0.008,-0.039,110.0,109.0,106.0,13.4,1505.2,359.1,-0.8,1.8,2471.459,13.29,0.02,292.8
2023-12-14T02:10:03,42.805,6.029,-0.015,-0.02,-0.022,110.0,109.0,106.0,13.4,1505.2,340.1,-0.8,1.8,2471.501,13.29,0.025,216.9
2023-12-14T02:13:03,42.805,6.029,-0.007,0.005,-0.003,109.0,108.0,107.0,13.4,1505.2,353.4,-0.7,1.8,2471.467,13.29,0.008,305.5
2023-12-14T02:16:03,42.805,6.029,-0.005,0.0,-0.017,110.0,108.0,106.0,13.4,1505.2,349.5,-0.8,1.8,2471.454,13.29,0.005,270.0
2023-12-14T02:19:03,42.805,6.029,-0.01,-0.008,0.001,109.0,108.0,106.0,13.4,1505.2,346.4,-0.8,1.8,2471.473,13.29,0.012,231.3
2023-12-14T02:22:03,42.805,6.029,-0.021,0.008,-0.024,109.0,108.0,106.0,13.4,1505.2,347.9,-0.7,1.8,2471.454,13.29,0.022,290.9
2023-12-14T02:25:03,42.805,6.029,-0.031,0.013,-0.008,110.0,107.0,106.0,13.4,1505.2,345.3,-0.7,1.8,2471.442,13.29,0.033,292.7
2023-12-14T02:28:03,42.805,6.029,0.0,-0.003,-0.011,109.0,109.0,106.0,13.3,1505.2,349.6,-0.7,1.8,2471.43,13.29,0.003,180.0
2023-12-14T02:31:03,42.805,6.029,-0.027,-0.01,-0.008,110.0,108.0,105.0,13.4,1505.2,336.2,-0.8,1.8,2471.456,13.29,0.028,249.7
2023-12-14T02:34:03,42.805,6.029,-0.037,-0.001,-0.031,110.0,110.0,106.0,13.4,1505.2,346.4,-0.8,1.8,2471.5,13.29,0.037,268.5
2023-12-14T02:37:03,42.805,6.029,-0.022,0.0,-0.045,109.0,108.0,106.0,13.3,1505.2,347.4,-0.8,1.8,2471.458,13.29,0.022,270.0
2023-12-14T02:40:03,42.805,6.029,-0.02,0.0,-0.053,110.0,109.0,106.0,13.3,1505.2,348.5,-0.8,1.8,2471.435,13.29,0.02,270.0
2023-12-14T02:43:03,42.805,6.029,-0.016,-0.006,-0.006,109.0,110.0,106.0,13.4,1505.2,2.5,-0.7,1.8,2471.423,13.29,0.017,249.4
2023-12-14T02:46:03,42.805,6.029,-0.019,0.004,-0.019,110.0,109.0,106.0,13.4,1505.2,338.9,-0.8,1.8,2471.47,13.29,0.019,281.9
2023-12-14T02:49:03,42.805,6.029,-0.021,-0.006,-0.024,110.0,108.0,106.0,13.3,1505.2,343.1,-0.8,1.8,2471.447,13.29,0.021,254.1
2023-12-14T02:52:03,42.805,6.029,-0.007,-0.001,-0.008,110.0,108.0,106.0,13.4,1505.2,347.9,-0.8,1.8,2471.451,13.29,0.007,261.9
2023-12-14T02:55:03,42.805,6.029,-0.013,-0.002,-0.014,110.0,110.0,105.0,13.4,1505.2,356.3,-0.8,1.8,2471.437,13.29,0.013,261.3
2023-12-14T02:58:03,42.805,6.029,-0.028,-0.005,-0.017,111.0,109.0,107.0,13.3,1505.2,1.5,-0.7,1.8,2471.455,13.29,0.028,259.9
2023-12-14T03:04:03,42.805,6.029,-0.017,0.0,-0.036,109.0,109.0,106.0,13.4,1505.2,352.7,-0.8,1.8,2471.518,13.29,0.017,270.0
2023-12-14T03:07:03,42.805,6.029,-0.016,-0.016,0.001,110.0,108.0,106.0,13.4,1505.2,352.2,-0.8,1.8,2471.497,13.29,0.022,225.0
2023-12-14T03:10:03,42.805,6.029,-0.018,-0.012,-0.006,110.0,109.0,106.0,13.4,1505.2,337.3,-0.8,1.8,2471.448,13.29,0.021,236.3
2023-12-14T03:13:03,42.805,6.029,-0.019,-0.017,-0.02,109.0,110.0,105.0,13.4,1505.2,357.4,-0.7,1.8,2471.491,13.29,0.025,228.2
2023-12-14T03:16:03,42.805,6.029,-0.016,0.001,-0.009,110.0,109.0,105.0,13.4,1505.2,347.2,-0.7,1.8,2471.501,13.29,0.016,273.6
2023-12-14T03:19:03,42.805,6.029,-0.012,-0.002,-0.03,110.0,109.0,106.0,13.4,1505.2,357.3,-0.8,1.8,2471.499,13.29,0.012,260.5
2023-12-14T03:22:03,42.805,6.029,-0.021,-0.009,-0.017,110.0,109.0,106.0,13.4,1505.2,352.9,-0.8,1.8,2471.488,13.29,0.022,246.8
2023-12-14T03:25:03,42.805,6.029,-0.006,-0.002,0.0,110.0,108.0,106.0,13.3,1505.2,345.9,-0.7,1.8,2471.507,13.29,0.006,251.6
2023-12-14T03:28:03,42.805,6.029,-0.006,-0.006,-0.029,110.0,108.0,105.0,13.4,1505.2,358.3,-0.8,1.8,2471.497,13.29,0.008,225.0
2023-12-14T03:31:03,42.805,6.029,-0.024,-0.006,-0.012,110.0,109.0,106.0,13.4,1505.2,341.8,-0.8,1.8,2471.507,13.29,0.024,256.0
2023-12-14T03:34:03,42.805,6.029,-0.014,-0.004,-0.014,111.0,109.0,106.0,13.4,1505.2,354.3,-0.8,1.8,2471.457,13.29,0.014,254.1
2023-12-14T03:37:03,42.805,6.029,-0.005,-0.002,-0.01,110.0,108.0,107.0,13.3,1505.2,351.8,-0.8,1.8,2471.468,13.29,0.005,248.2
2023-12-14T03:40:03,42.805,6.029,-0.012,-0.008,-0.027,111.0,109.0,106.0,13.3,1505.2,349.1,-0.8,1.8,2471.465,13.29,0.014,236.3
2023-12-14T03:43:03,42.805,6.029,-0.022,-0.014,-0.032,111.0,108.0,106.0,13.4,1505.2,337.6,-0.8,1.8,2471.469,13.29,0.026,237.5
2023-12-14T03:46:03,42.805,6.029,-0.023,-0.007,-0.043,111.0,108.0,106.0,13.3,1505.2,347.0,-0.8,1.8,2471.523,13.29,0.024,253.1
2023-12-14T03:49:03,42.805,6.029,-0.018,0.002,0.008,109.0,110.0,106.0,13.3,1505.2,345.7,-0.7,1.8,2471.484,13.29,0.018,276.3
2023-12-14T03:52:03,42.805,6.029,-0.009,-0.004,-0.015,109.0,108.0,107.0,13.4,1505.2,0.8,-0.7,1.8,2471.471,13.29,0.009,246.0
2023-12-14T03:55:03,42.805,6.029,-0.019,-0.005,-0.037,110.0,108.0,106.0,13.3,1505.2,342.0,-0.8,1.8,2471.477,13.29,0.019,255.3
2023-12-14T03:58:03,42.805,6.029,-0.007,-0.019,-0.012,110.0,110.0,106.0,13.4,1505.2,356.5,-0.7,1.8,2471.486,13.29,0.02,200.2
2023-12-14T04:04:03,42.805,6.029,-0.005,-0.018,-0.01,110.0,110.0,106.0,13.3,1505.2,0.0,-0.8,1.8,2471.552,13.29,0.018,195.5
2023-12-14T04:07:03,42.805,6.029,-0.019,-0.027,-0.03,110.0,110.0,106.0,13.4,1505.2,344.7,-0.8,1.8,2471.541,13.29,0.033,215.1
2023-12-14T04:10:03,42.805,6.029,-0.02,0.009,-0.005,109.0,108.0,106.0,13.4,1505.2,345.7,-0.8,1.8,2471.562,13.29,0.021,294.2
2023-12-14T04:13:03,42.805,6.029,-0.009,-0.01,-0.007,109.0,108.0,106.0,13.4,1505.2,347.5,-0.7,1.8,2471.528,13.29,0.013,222.0
2023-12-14T04:16:03,42.805,6.029,-0.009,0.0,-0.007,110.0,109.0,106.0,13.4,1505.2,358.4,-0.8,1.8,2471.503,13.29,0.009,270.0
2023-12-14T04:19:03,42.805,6.029,-0.014,-0.008,-0.002,111.0,108.0,107.0,13.3,1505.2,358.3,-0.8,1.8,2471.492,13.29,0.016,240.3
2023-12-14T04:22:03,42.805,6.029,-0.035,-0.022,0.026,109.0,108.0,106.0,13.4,1505.2,347.9,-0.8,1.8,2471.538,13.29,0.041,237.8
2023-12-14T04:25:03,42.805,6.029,-0.01,-0.019,-0.029,111.0,109.0,107.0,13.3,1505.2,349.3,-0.8,1.8,2471.509,13.29,0.021,207.8
2023-12-14T04:28:03,42.805,6.029,-0.019,-0.009,-0.018,110.0,109.0,107.0,13.4,1505.2,357.7,-0.7,1.8,2471.583,13.29,0.021,244.7
2023-12-14T04:31:03,42.805,6.029,-0.006,-0.007,-0.036,110.0,110.0,106.0,13.4,1505.2,341.8,-0.8,1.8,2471.528,13.29,0.009,220.6
2023-12-14T04:34:03,42.805,6.029,-0.015,-0.02,-0.045,110.0,110.0,105.0,13.3,1505.2,350.0,-0.8,1.8,2471.559,13.29,0.025,216.9
2023-12-14T04:37:03,42.805,6.029,-0.02,-0.018,-0.019,109.0,110.0,106.0,13.3,1505.2,346.7,-0.8,1.8,2471.592,13.29,0.026,228.0
2023-12-14T04:40:03,42.805,6.029,-0.008,-0.003,-0.018,111.0,109.0,108.0,13.4,1505.2,0.0,-0.7,1.8,2471.54,13.29,0.008,249.4
2023-12-14T04:43:03,42.805,6.029,-0.036,-0.014,-0.031,110.0,109.0,106.0,13.4,1505.2,349.6,-0.8,1.8,2471.529,13.29,0.038,248.8
2023-12-14T04:46:03,42.805,6.029,-0.014,0.006,-0.004,110.0,109.0,106.0,13.3,1505.2,354.2,-0.8,1.8,2471.538,13.29,0.015,293.2
2023-12-14T04:49:03,42.805,6.029,-0.022,-0.02,-0.01,109.0,110.0,106.0,13.4,1505.2,348.8,-0.8,1.8,2471.524,13.29,0.029,227.7
2023-12-14T04:52:03,42.805,6.029,-0.023,-0.032,-0.022,110.0,111.0,107.0,13.4,1505.2,358.4,-0.8,1.8,2471.585,13.29,0.039,215.7
2023-12-14T04:55:03,42.805,6.029,-0.03,-0.029,-0.04,110.0,109.0,105.0,13.3,1505.2,348.0,-0.7,1.8,2471.566,13.29,0.041,226.0
2023-12-14T04:58:03,42.805,6.029,-0.02,-0.012,0.002,110.0,110.0,105.0,13.4,1505.2,346.3,-0.7,1.8,2471.542,13.29,0.023,239.0
2023-12-14T05:04:03,42.805,6.029,-0.015,-0.014,-0.028,110.0,109.0,106.0,13.4,1505.2,358.3,-0.8,1.8,2471.654,13.29,0.02,227.0
2023-12-14T05:07:03,42.805,6.029,-0.016,-0.018,-0.029,110.0,109.0,106.0,13.3,1505.2,340.4,-0.8,1.8,2471.605,13.29,0.024,221.6
2023-12-14T05:10:03,42.805,6.029,-0.008,-0.011,-0.016,110.0,108.0,106.0,13.4,1505.2,356.7,-0.8,1.8,2471.581,13.29,0.013,216.0
2023-12-14T05:13:03,42.805,6.029,-0.001,-0.018,-0.012,110.0,110.0,107.0,13.4,1505.2,356.4,-0.7,1.8,2471.628,13.29,0.018,183.2
2023-12-14T05:16:03,42.805,6.029,-0.013,-0.017,-0.014,109.0,109.0,107.0,13.3,1505.2,339.1,-0.8,1.8,2471.62,13.29,0.021,217.4
2023-12-14T05:19:03,42.805,6.029,-0.02,-0.009,-0.01,109.0,109.0,107.0,13.3,1505.2,355.6,-0.8,1.8,2471.613,13.29,0.021,245.8
2023-12-14T05:22:03,42.805,6.029,-0.033,-0.013,-0.015,110.0,108.0,107.0,13.4,1505.2,348.5,-0.8,1.8,2471.6,13.29,0.035,248.5
2023-12-14T05:25:03,42.805,6.029,-0.012,-0.03,-0.051,111.0,109.0,106.0,13.4,1505.2,359.2,-0.8,1.8,2471.604,13.29,0.032,201.8
2023-12-14T05:28:03,42.805,6.029,-0.027,-0.012,-0.06,110.0,109.0,106.0,13.4,1505.2,341.5,-0.7,1.8,2471.618,13.29,0.029,246.0
2023-12-14T05:31:03,42.805,6.029,-0.02,-0.007,-0.02,111.0,109.0,108.0,13.3,1505.2,345.3,-0.7,1.8,2471.615,13.29,0.021,250.7
2023-12-14T05:34:03,42.805,6.029,-0.011,0.001,-0.001,111.0,110.0,107.0,13.4,1505.2,354.8,-0.8,1.8,2471.642,13.29,0.011,275.2
2023-12-14T05:37:03,42.805,6.029,-0.009,-0.013,0.001,109.0,109.0,107.0,13.3,1505.2,348.2,-0.8,1.8,2471.633,13.29,0.015,214.7
2023-12-14T05:40:03,42.805,6.029,-0.051,-0.01,0.002,111.0,110.0,107.0,13.4,1505.2,349.9,-0.7,1.8,2471.645,13.29,0.051,258.9
2023-12-14T05:43:03,42.805,6.029,-0.008,-0.037,-0.007,110.0,110.0,107.0,13.3,1505.2,356.2,-0.8,1.8,2471.66,13.29,0.037,192.2
2023-12-14T05:46:03,42.805,6.029,-0.027,-0.007,-0.006,111.0,110.0,107.0,13.3,1505.2,342.8,-0.8,1.8,2471.629,13.29,0.027,255.5
2023-12-14T05:49:03,42.805,6.029,-0.018,-0.028,-0.03,111.0,110.0,107.0,13.4,1505.2,347.1,-0.8,1.8,2471.627,13.29,0.033,212.7
2023-12-14T05:52:03,42.805,6.029,-0.02,-0.021,-0.026,111.0,111.0,108.0,13.4,1505.2,358.2,-0.7,1.8,2471.612,13.29,0.028,223.6
2023-12-14T05:55:03,42.805,6.029,-0.004,-0.009,-0.016,111.0,110.0,107.0,13.4,1505.2,342.0,-0.8,1.8,2471.639,13.29,0.009,204.0
2023-12-14T05:58:03,42.805,6.029,-0.015,-0.01,-0.004,109.0,109.0,107.0,13.4,1505.2,346.5,-0.8,1.8,2471.636,13.29,0.018,236.3
2023-12-14T06:04:03,42.805,6.029,-0.049,-0.023,-0.042,110.0,109.0,106.0,13.4,1505.2,346.9,-0.7,1.9,2471.732,13.29,0.054,244.9
2023-12-14T06:07:03,42.805,6.029,-0.024,-0.007,0.004,109.0,110.0,106.0,13.4,1505.2,351.8,-0.8,1.8,2471.724,13.29,0.025,253.7
2023-12-14T06:10:03,42.805,6.029,-0.024,0.017,-0.027,110.0,109.0,106.0,13.4,1505.2,1.7,-0.7,1.8,2471.7,13.29,0.029,305.3
2023-12-14T06:13:03,42.805,6.029,-0.025,0.006,-0.008,111.0,109.0,106.0,13.3,1505.2,357.6,-0.7,1.8,2471.663,13.29,0.025,283.5
2023-12-14T06:16:03,42.805,6.029,-0.027,-0.001,0.011,111.0,110.0,107.0,13.4,1505.2,339.8,-0.8,1.8,2471.741,13.29,0.027,267.9
2023-12-14T06:19:03,42.805,6.029,-0.02,0.002,0.022,110.0,111.0,106.0,13.4,1505.2,345.0,-0.8,1.8,2471.73,13.29,0.02,275.7
2023-12-14T06:22:03,42.805,6.029,-0.034,-0.026,-0.034,111.0,110.0,107.0,13.4,1505.2,346.5,-0.7,1.8,2471.707,13.29,0.042,232.6
2023-12-14T06:25:03,42.805,6.029,-0.036,0.008,-0.013,111.0,111.0,107.0,13.4,1505.2,3.2,-0.7,1.8,2471.71,13.29,0.036,282.5
2023-12-14T06:28:03,42.805,6.029,-0.026,-0.02,0.015,111.0,109.0,107.0,13.4,1505.2,337.5,-0.8,1.8,2471.691,13.29,0.032,232.4
2023-12-14T06:31:03,42.805,6.029,-0.04,0.002,-0.044,110.0,109.0,108.0,13.4,1505.2,351.4,-0.8,1.8,2471.645,13.29,0.04,272.9
2023-12-14T06:34:03,42.805,6.029,-0.023,-0.009,-0.014,110.0,110.0,107.0,13.4,1505.2,344.6,-0.8,1.8,2471.69,13.29,0.024,248.6
2023-12-14T06:37:03,42.805,6.029,-0.032,0.01,-0.008,110.0,111.0,107.0,13.4,1505.2,0.8,-0.8,1.9,2471.676,13.29,0.033,287.4
2023-12-14T06:40:03,42.805,6.029,-0.014,-0.021,-0.017,109.0,109.0,107.0,13.4,1505.2,0.8,-0.7,1.8,2471.707,13.29,0.025,213.7
2023-12-14T06:43:03,42.805,6.029,-0.027,0.0,-0.025,111.0,110.0,107.0,13.3,1505.2,356.1,-0.8,1.9,2471.707,13.29,0.026,270.0
2023-12-14T06:46:03,42.805,6.029,-0.019,-0.017,-0.019,110.0,110.0,106.0,13.4,1505.2,343.4,-0.7,1.8,2471.674,13.29,0.025,228.2
2023-12-14T06:49:03,42.805,6.029,-0.038,-0.009,-0.031,111.0,110.0,106.0,13.3,1505.2,348.8,-0.8,1.9,2471.702,13.29,0.039,256.7
2023-12-14T06:52:03,42.805,6.029,-0.027,-0.031,-0.008,111.0,110.0,107.0,13.4,1505.2,346.1,-0.8,1.8,2471.734,13.29,0.041,221.1
2023-12-14T06:55:03,42.805,6.029,-0.032,-0.004,0.001,111.0,110.0,107.0,13.4,1505.2,341.5,-0.8,1.8,2471.712,13.29,0.032,262.9
2023-12-14T06:58:03,42.805,6.029,-0.037,-0.008,-0.019,111.0,111.0,107.0,13.4,1505.2,354.7,-0.8,1.8,2471.677,13.29,0.037,257.8
2023-12-14T07:04:03,42.805,6.029,-0.034,-0.015,-0.024,112.0,110.0,108.0,13.4,1505.2,348.8,-0.7,1.8,2471.738,13.29,0.037,246.2
2023-12-14T07:07:03,42.805,6.029,-0.032,-0.012,-0.024,110.0,110.0,107.0,13.4,1505.2,346.9,-0.7,1.8,2471.728,13.29,0.034,249.4
2023-12-14T07:10:03,42.805,6.029,-0.032,-0.007,-0.039,112.0,109.0,106.0,13.4,1505.2,343.9,-0.8,1.9,2471.749,13.29,0.032,257.7
2023-12-14T07:13:03,42.805,6.029,-0.059,-0.004,0.0,111.0,109.0,107.0,13.4,1505.2,352.6,-0.7,1.8,2471.723,13.29,0.059,266.1
2023-12-14T07:16:03,42.805,6.029,-0.043,-0.012,-0.031,110.0,109.0,107.0,13.4,1505.2,345.3,-0.7,1.8,2471.756,13.29,0.044,254.4
2023-12-14T07:19:03,42.805,6.029,-0.009,-0.012,-0.008,110.0,109.0,106.0,13.3,1505.2,0.0,-0.8,1.8,2471.743,13.29,0.015,216.9
2023-12-14T07:22:03,42.805,6.029,-0.045,-0.003,-0.015,110.0,109.0,106.0,13.4,1505.2,339.7,-0.8,1.8,2471.73,13.29,0.045,266.2
2023-12-14T07:25:03,42.805,6.029,-0.03,0.01,0.033,111.0,110.0,107.0,13.3,1505.2,348.2,-0.8,1.8,2471.707,13.29,0.031,288.4
2023-12-14T07:28:03,42.805,6.029,-0.047,0.007,-0.008,110.0,109.0,106.0,13.3,1505.2,349.5,-0.8,1.8,2471.741,13.29,0.047,278.5
2023-12-14T07:31:03,42.805,6.029,-0.045,-0.015,-0.003,110.0,110.0,106.0,13.4,1505.2,349.9,-0.8,1.8,2471.729,13.29,0.047,251.6
2023-12-14T07:34:03,42.805,6.029,-0.042,-0.005,-0.008,111.0,108.0,106.0,13.4,1505.2,354.7,-0.8,1.8,2471.705,13.29,0.042,263.2
2023-12-14T07:37:03,42.805,6.029,-0.013,-0.008,-0.017,111.0,109.0,106.0,13.4,1505.2,356.2,-0.8,1.8,2471.752,13.29,0.015,238.4
2023-12-14T07:40:03,42.805,6.029,-0.041,-0.016,-0.007,110.0,109.0,106.0,13.4,1505.2,343.4,-0.8,1.8,2471.729,13.29,0.044,248.7
2023-12-14T07:43:03,42.805,6.029,-0.042,-0.008,-0.027,110.0,110.0,106.0,13.4,1505.2,353.0,-0.8,1.8,2471.747,13.29,0.042,259.2
2023-12-14T07:46:03,42.805,6.029,-0.041,-0.005,-0.016,110.0,110.0,107.0,13.3,1505.2,355.6,-0.7,1.8,2471.723,13.29,0.041,263.0
2023-12-14T07:49:03,42.805,6.029,-0.018,-0.021,-0.051,111.0,110.0,107.0,13.3,1505.2,351.2,-0.8,1.8,2471.739,13.29,0.027,220.6
2023-12-14T07:52:03,42.805,6.029,-0.016,0.005,-0.017,111.0,109.0,107.0,13.4,1505.2,1.6,-0.7,1.8,2471.691,13.29,0.016,287.4
2023-12-14T07:55:03,42.805,6.029,-0.014,-0.003,0.0,111.0,110.0,106.0,13.3,1505.2,351.6,-0.7,1.8,2471.738,13.29,0.014,257.9
2023-12-14T07:58:03,42.805,6.029,-0.05,0.003,-0.023,111.0,110.0,106.0,13.3,1505.2,345.7,-0.8,1.8,2471.709,13.29,0.05,273.4
2023-12-14T08:01:03,42.805,6.029,-0.061,-0.018,-0.031,111.0,109.0,107.0,13.4,1505.2,339.4,-0.8,1.8,2471.73,13.29,0.063,253.6
2023-12-14T08:04:03,42.805,6.029,-0.043,-0.008,-0.014,110.0,110.0,105.0,13.3,1505.2,357.4,-0.8,1.8,2471.763,13.29,0.043,259.5
2023-12-14T08:07:03,42.805,6.029,-0.03,-0.024,-0.003,110.0,110.0,108.0,13.3,1505.2,340.0,-0.8,1.8,2471.713,13.29,0.038,231.3
2023-12-14T08:10:03,42.805,6.029,-0.03,0.002,-0.04,111.0,109.0,108.0,13.4,1505.2,350.9,-0.8,1.8,2471.732,13.29,0.03,273.8
2023-12-14T08:13:03,42.805,6.029,-0.032,-0.015,-0.019,110.0,110.0,107.0,13.4,1505.2,349.2,-0.8,1.8,2471.712,13.29,0.035,244.9
2023-12-14T08:16:03,42.805,6.029,-0.046,0.012,-0.002,111.0,109.0,107.0,13.4,1505.2,348.6,-0.8,1.8,2471.732,13.29,0.047,284.6
2023-12-14T08:19:03,42.805,6.029,-0.024,0.008,-0.022,110.0,110.0,107.0,13.4,1505.2,359.2,-0.8,1.8,2471.734,13.29,0.025,288.4
2023-12-14T08:22:03,42.805,6.029,-0.017,-0.01,-0.041,110.0,110.0,107.0,13.4,1505.2,339.8,-0.8,1.8,2471.743,13.29,0.019,239.5
2023-12-14T08:25:03,42.805,6.029,-0.039,-0.002,-0.02,111.0,109.0,107.0,13.4,1505.2,353.9,-0.8,1.8,2471.703,13.29,0.039,267.1
2023-12-14T08:28:03,42.805,6.029,-0.045,0.008,-0.033,110.0,109.0,107.0,13.4,1505.2,350.2,-0.8,1.8,2471.73,13.29,0.045,280.1
2023-12-14T08:31:03,42.805,6.029,-0.036,0.0,-0.027,111.0,109.0,106.0,13.4,1505.2,343.9,-0.8,1.8,2471.7,13.29,0.036,270.0
2023-12-14T08:34:03,42.805,6.029,-0.028,0.005,-0.047,111.0,108.0,107.0,13.3,1505.2,344.6,-0.7,1.8,2471.723,13.29,0.028,280.1
2023-12-14T08:37:03,42.805,6.029,-0.034,-0.017,-0.034,111.0,109.0,107.0,13.4,1505.2,349.8,-0.8,1.8,2471.721,13.29,0.038,243.4
2023-12-14T08:40:03,42.805,6.029,-0.038,-0.011,-0.025,110.0,110.0,107.0,13.4,1505.2,351.8,-0.8,1.8,2471.748,13.29,0.039,253.9
2023-12-14T08:43:03,42.805,6.029,-0.043,0.006,-0.018,111.0,110.0,107.0,13.4,1505.2,1.5,-0.7,1.8,2471.729,13.29,0.043,277.9
2023-12-14T08:46:03,42.805,6.029,-0.043,-0.009,-0.017,111.0,110.0,107.0,13.3,1505.2,342.9,-0.8,1.8,2471.715,13.29,0.043,258.2
2023-12-14T08:49:03,42.805,6.029,-0.04,-0.017,-0.044,110.0,110.0,106.0,13.3,1505.2,337.0,-0.8,1.8,2471.773,13.29,0.043,247.0
2023-12-14T08:52:03,42.805,6.029,-0.046,-0.006,-0.034,111.0,110.0,108.0,13.3,1505.2,346.7,-0.8,1.8,2471.764,13.29,0.046,262.6
2023-12-14T08:55:03,42.805,6.029,-0.061,0.004,-0.047,111.0,111.0,107.0,13.4,1505.2,346.5,-0.8,1.8,2471.749,13.29,0.061,273.7
2023-12-14T08:58:03,42.805,6.029,-0.04,-0.007,-0.046,111.0,110.0,107.0,13.4,1505.2,347.5,-0.8,1.8,2471.754,13.29,0.04,260.1
2023-12-14T09:04:03,42.805,6.029,-0.04,0.019,-0.012,110.0,110.0,108.0,13.3,1505.2,0.0,-0.8,1.8,2471.755,13.29,0.044,295.4
2023-12-14T09:07:03,42.805,6.029,-0.046,0.007,-0.025,110.0,111.0,108.0,13.4,1505.2,0.0,-0.8,1.8,2471.757,13.29,0.046,278.7
2023-12-14T09:10:03,42.805,6.029,-0.048,0.005,-0.033,110.0,109.0,108.0,13.3,1505.2,341.0,-0.8,1.9,2471.759,13.29,0.048,275.9
2023-12-14T09:13:03,42.805,6.029,-0.055,0.0,-0.038,111.0,110.0,106.0,13.4,1505.2,350.0,-0.8,1.8,2471.766,13.29,0.055,270.0
2023-12-14T09:16:03,42.805,6.029,-0.044,0.012,-0.025,110.0,109.0,105.0,13.4,1505.2,344.3,-0.8,1.8,2471.761,13.29,0.045,285.3
2023-12-14T09:19:03,42.805,6.029,-0.022,-0.002,-0.046,110.0,110.0,106.0,13.4,1505.2,351.9,-0.7,1.8,2471.727,13.29,0.022,264.8
2023-12-14T09:22:03,42.805,6.029,-0.043,0.009,-0.012,110.0,108.0,107.0,13.4,1505.2,350.9,-0.8,1.8,2471.762,13.29,0.043,281.8
2023-12-14T09:25:03,42.805,6.029,-0.044,0.009,-0.043,109.0,109.0,107.0,13.3,1505.2,0.8,-0.8,1.8,2471.747,13.29,0.044,281.6
2023-12-14T09:28:03,42.805,6.029,-0.035,0.002,-0.026,110.0,108.0,106.0,13.3,1505.2,346.8,-0.8,1.8,2471.719,13.29,0.035,273.3
2023-12-14T09:31:03,42.805,6.029,-0.046,0.027,-0.028,110.0,109.0,105.0,13.4,1505.2,351.0,-0.8,1.8,2471.755,13.29,0.053,300.4
2023-12-14T09:34:03,42.805,6.029,-0.053,-0.008,-0.03,109.0,110.0,106.0,13.3,1505.2,339.3,-0.8,1.8,2471.738,13.29,0.053,261.4
2023-12-14T09:37:03,42.805,6.029,-0.018,-0.013,-0.021,109.0,108.0,107.0,13.4,1505.2,340.1,-0.7,1.8,2471.726,13.29,0.022,234.2
2023-12-14T09:40:03,42.805,6.029,-0.044,-0.001,-0.032,111.0,109.0,106.0,13.4,1505.2,346.3,-0.8,1.8,2471.722,13.29,0.044,268.7
2023-12-14T09:43:03,42.805,6.029,-0.033,-0.014,-0.068,109.0,108.0,106.0,13.4,1505.2,356.5,-0.8,1.8,2471.698,13.29,0.035,247.0
2023-12-14T09:46:03,42.805,6.029,-0.052,-0.024,-0.018,109.0,109.0,107.0,13.4,1505.2,349.4,-0.8,1.8,2471.748,13.29,0.057,245.2
2023-12-14T09:49:03,42.805,6.029,-0.061,0.025,-0.002,110.0,108.0,106.0,13.4,1505.2,354.7,-0.8,1.8,2471.692,13.29,0.065,292.3